User: anonymous
Location: Fort Wayne
(41.1310°N, 85.1290°W)
Time: 15:53:39
(UTC-04:00)
Language:

Cosmos 2227 Rocket - Orbit

View from above orbital plane
View from above orbital plane
View from above satellite
View from above satellite

Ground track
Ground track

The orbit data is extracted from the following two-line orbital elements,

1 22285U 92093B   14261.16589824 -.00000015  00000-0  16696-4 0  3958
2 22285 071.0227 156.2880 0005694 238.8128 121.2437 14.14925492120651
Epoch (UTC): 18 September 2014 03:58:53
Eccentricity: 0.0005694
inclination: 71.0227°
perigee height: 838 km
apogee height: 846 km
right ascension of ascending node: 156.2880°
argument of perigee: 238.8128°
revolutions per day: 14.14925492
mean anomaly at epoch: 121.2437°
orbit number at epoch: 12065

The dashed part of the orbit path shows where the satellite is in the earth's shadow,  

DLR